Regional Weather Roundup
Issued by NWS

Home | Current Version | Previous Version | Text Only | Print | Product List | Glossary Off
Versions: 1 2 3 4 5 6 7 8 9 10 11 12 13 14 15 16 17 18 19 20 21 22 23 24 25 26 27 28

000
ASUS45 KBOU 231806
RWRCO

WEATHER ROUNDUP FOR COLORADO
NATIONAL WEATHER SERVICE DENVER/BOULDER CO
1200 PM MDT WED APR 23 2014

NOTE: "FAIR" INDICATES FEW OR NO CLOUDS BELOW 12000 FEET WITH NO
SIGNIFICANT WEATHER AND/OR OBSTRUCTIONS TO VISIBILITY.

COZ001>005-013-030-031-231900-
...NORTHWEST COLORADO...

CITY           SKY/WX    TMP DP  RH WIND       PRES   REMARKS
CRAIG          LGT RAIN  39  30  70 NW3       29.93R
HAYDEN         CLOUDY    39  28  65 NW12      29.93R
MEEKER         CLOUDY    48  20  32 NW14G21   29.89S
MOUNT WERNER   CLOUDY   N/A N/A N/A W15G22    29.93S VSB<1/4
STEAMBOAT SPGS CLOUDY    43  29  58 W8G18     29.88S
WALDEN         CLOUDY    41  27  56 SW6       29.85S
$$

COZ006>008-011-231900-
...WEST CENTRAL VALLEYS...

CITY           SKY/WX    TMP DP  RH WIND       PRES   REMARKS
GRAND JUNCTION PTSUNNY   55  16  21 W18       29.86S
MONTROSE       PTSUNNY   58  20  22 W12       29.86S
EAGLE          MOSUNNY   54  19  26 W12G24    29.83R
RIFLE          CLOUDY    56  20  24 W14G20    29.83F
DELTA          NOT AVBL
NUCLA          NOT AVBL
$$

COZ017>023-064>068-231900-
...SOUTHWEST COLORADO...

CITY           SKY/WX    TMP DP  RH WIND       PRES   REMARKS
DURANGO        CLOUDY    58  16  19 SW20G28   29.87F
CORTEZ         CLOUDY    61  12  14 NW20      29.85S
PAGOSA SPRINGS CLOUDY    55  14  19 SW18G24   29.91S
TELLURIDE      CLOUDY    46  12  25 W9G16     29.91F
WOLF CREEK PAS PTSUNNY   32  16  51 SW20G45   29.99R WCI  20
$$

COZ009-010-012-014-032>034-037-058>063-231900-
...CENTRAL COLORADO...

CITY           SKY/WX    TMP DP  RH WIND       PRES   REMARKS
ASPEN          PTSUNNY   49  22  34 N12       29.84R
BUENA VISTA    PTSUNNY   57  11  16 S16G23    29.79S
COPPER MTN     PTSUNNY   34  18  51 SW15G21   29.96R WCI  24
BERTHOUD PASS  FAIR      30  19  64 W25G38    29.94R WCI  16
COTTONWOOD PAS MOSUNNY   52   9  17 SW14G25   29.87R
GUNNISON       PTSUNNY   54  16  22 W24G31    29.86S
KREMMLING      PTSUNNY   50  27  40 N13G20    29.84S
LEADVILLE      CLOUDY    40  15  36 N10       29.87R
MONARCH PASS   CLOUDY    34  18  51 W28G38    30.06S WCI  20
SALIDA         MOSUNNY   61  17  18 W16G25    29.87F
SUNLIGHT       CLOUDY    36  25  64 CALM      29.93S
WILKERSON PASS SUNNY     45  16  31 SW10G23   29.93R
$$

COZ069>075-231900-
...SAN LUIS VALLEY/SANGRE DE CRISTO MOUNTAINS...

CITY           SKY/WX    TMP DP  RH WIND       PRES   REMARKS
ALAMOSA        SUNNY     63  14  15 SW18G29   29.81F
LA VETA PASS   PTSUNNY   46  19  34 SW22G36   29.89F
SAGUACHE       CLOUDY    57  16  19 NE5       29.81S
$$

COZ035-036-038>040-231900-
...NORTHERN COLORADO FRONT RANGE...

CITY           SKY/WX    TMP DP  RH WIND       PRES   REMARKS
DENVER INTL AP MOSUNNY   71  28  20 VRB3      29.63S
DMNS CITY PARK   N/A     71  31  22 E7G14     29.60F
AURORA         MOSUNNY   70  25  18 SW10      29.64F
FRONT RANGE AP PTSUNNY   68  28  22 E9        29.64S
ERIE MUNI ARPT SUNNY     69  26  19 NW17G26   29.61S
BOULDER MUN AP SUNNY     66  28  24 W17G28    29.62F
CENTENNIAL     MOSUNNY   69  20  15 SW17      29.64F
BROOMFIELD     MOSUNNY   68  28  22 NW14G21   29.63F
FORT COLLINS   SUNNY     68  28  22 SW14      29.63S
LONGMONT       NOT AVBL
$$

COZ041-046-047-076>085-087-088-231900-
...PIKES PEAK/PALMER DIVIDE AND SOUTHERN FOOTHILLS...

CITY           SKY/WX    TMP DP  RH WIND       PRES   REMARKS
COLO. SPRINGS  MOSUNNY   70  17  13 SW15G25   29.66F
A. F. ACADEMY  MOSUNNY   68  14  12 W25G35    29.67F
ELLICOTT       NOT AVBL
FALCON         SUNNY     68  16  13 W8G22     29.71F
FORT CARSON    SUNNY     71  23  16 S21G35    29.64S
LIMON          PTSUNNY   73  23  15 S17       29.63F
MONUMENT HILL  MOSUNNY   63  23  22 W10G16    29.70F
TRINIDAD       SUNNY     74  16  11 SW20G35   29.70F
$$

COZ042>045-048>051-090-091-231900-
...NORTHEAST COLORADO...

CITY           SKY/WX    TMP DP  RH WIND       PRES   REMARKS
GREELEY ARPT   SUNNY     72  25  17 SW21G29   29.62R
AKRON          SUNNY     67  37  33 N18       29.63F
BURLINGTON     PTSUNNY   77  32  19 SW23      29.61F
WRAY           CLOUDY    73  36  25 N24G33    29.61F
STERLING       NOT AVBL
HOLYOKE        NOT AVBL
FORT MORGAN    NOT AVBL
$$

COZ086-089-092>099-231900-
...SOUTHEAST COLORADO...

CITY           SKY/WX    TMP DP  RH WIND       PRES   REMARKS
PUEBLO         SUNNY     76  17  11 VRB7G17   29.60F
LA JUNTA         N/A    N/A N/A N/A MISG      29.60F
LAMAR          CLOUDY    80  21  11 SW22G28   29.58F
SPRINGFIELD      N/A     79  41  25 S18G25    29.65F
$$



USA.gov is the U.S. government's official web portal to all federal, state and local government web resources and services.